Simultaneous Nadir Overpasses (SNOs) Predictions

Prediction of SNOs between METOP-B and NOAA-19 Satellite Orbit:

Table of predicted SNOs for the next 14.0 days since TLE Epoch: 2/26/2022
Index Date (METOP-B) Time (METOP-B) Lat,Lon (METOP-B) SZA (METOP-B ) Date (NOAA-19) Time (NOAA-19) Lat,Lon (NOAA-19) SZA (NOAA-19 ) Distance(km) Time Diff (sec)
1 03/05/2022 21:07:56 80.78,-105.12 87.68 03/05/2022 21:06:55 80.79,-105.06 87.68 1.43 61
2 03/05/2022 21:58:37 -80.79, 62.37 92.31 03/05/2022 21:57:52 -80.78, 62.31 92.34 1.26 45
3 03/05/2022 22:49:18 80.77,-130.62 87.64 03/05/2022 22:48:55 80.78,-130.53 87.65 2.34 23
4 03/05/2022 23:39:59 -80.78, 36.88 92.36 03/05/2022 23:39:52 -80.78, 36.85 92.36 0.69 7
5 03/06/2022 00:30:39 80.78,-155.76 87.63 03/06/2022 00:30:54 80.78,-155.64 87.64 2.34 15
6 03/06/2022 01:21:21 -80.77, 11.39 92.41 03/06/2022 01:21:52 -80.78, 11.38 92.39 1.24 31
7 03/06/2022 02:12:01 80.77, 178.74 87.59 03/06/2022 02:12:54 80.77, 178.89 87.62 2.67 53



Historial Predications of SNOs between METOP-B and NOAA-19
